STARLINK-34543, 64926

Orbit data source: Space-Track

STARLINK-34543, 64926 is a payload satellite owned by SpaceX/Seattle (US) in LEO that was launched on Sat, 26 Jul 2025 UTC via an FALCON 9 launch vehicle from the Air Force Eastern Test Range (AFETR). Payload-class satellites include a variety of spacecraft equipped with specific instruments for various scientific and technological missions. These include communications satellites like Starlink; space stations such as the ISS; scientific satellites like the Hubble; Earth observation satellites from companies like Planet Labs, Umbra, and HawkEye 360; GPS; miniature CubeSats for education and research; and military/defense satellites.

Loading next visibility...
Identifier
64926, 2025-157Y
Orbit
LEO
Country
Flag of USUS
Related business
Manufacturer
SpaceX/Seattle
Mission
Operational Commercial Communications
Bus & Motor
STARLINK V2MO, Unknown motor
Mass
575 kg wet, ~530 kg dry
Launch date (UTC)
2025-07-26 (10 months ago)
Launch vehicle
FALCON 9
Launch site
Air Force Eastern Test Range (AFETR)
Object type
Payload
Rocket body
Debris
Shape & HBR
Box + 2 Pan, 17.7 m
Radar Cross Section
36.964 m², Large (>1 m²)

Expand to show TLE details & history
Last TLE update: 7 hours ago

TLE from 7 hours ago
0 STARLINK-34543
1 64926U 25157Y   26145.56411504  .00020705  00000-0  67728-3 0  9998
2 64926  53.1611 348.5868 0002214 106.7341 253.3903 15.31692443 47845
Epoch: 2026-05-25T13:32Z
TLE epoch observation values (Epoch: 2026-05-25T13:32:19.539Z)
Latitude
-0.00006°
Longitude
-97.64476°
Altitude
472.097 km
Speed
7.631 km/s
True Right ascension
23h 14m 20s
True Declination
0° 00' 00"
Sunlit
Object was in daylight at epoch
Visualization orbit readout
Latitude
Unknown
Longitude
Unknown
Altitude
Unknown
Speed
Unknown
Apparent Right ascension
Unknown
Apparent Declination
Unknown
Sunlit
N/A
Visualization observer readout
Local Sidereal Time
06:09:55
Azimuth
Unknown
Elevation
Unknown
Doppler factor
Unknown
Orbital elements
Apogee altitude
472.535 km
Perigee altitude
469.503 km
Semi-major axis
6,849.156 km
Eccentricity
0.00022
Inclination
53.1611°
RAAN
348.5868°
Arg. of periapsis
106.7341°
True anomaly
253.36599°
Mean anomaly
253.3903°
Eccentric anomaly
253.37814°
Mean motion
3.82902 °/min
Orbital period
94.02 mins
BSTAR
0.00067728
Loading maneuver chart data...
Computing Atmospheric mass density...
Loading historical data...
Loading historical data...
Loading historical data...
Loading historical data...
Loading historical data...
Loading historical data...
Loading historical data...

Documentation

Showing up to 5 results
|